Wind_Speed
12 13 12 13 13 14 14 14 14 14 14 14 14 14 14 13 13 14 15 15 14 14 14 14 14 14 14 14 14 14 14 14 14 14 14 14 14 14 15 15 15 16 17
13 13 13 13 13 14 14 14 14 14 14 14 14 14 14 14 14 14 15 15 15 15 15 14 14 14 14 14 14 14 14 14 13 14 14 15 15 15 15 15 15 15 16
13 13 13 13 14 14 14 14 14 15 14 15 15 15 15 14 14 14 15 15 15 15 15 15 14 13 13 14 14 14 14 14 14 14 14 15 15 15 16 16 16 16 16
13 13 13 13 14 14 14 14 14 15 15 15 14 14 15 15 14 14 14 15 15 15 15 14 14 14 14 14 14 14 14 14 14 15 15 16 16 16 16 16 16 17 17
13 14 13 13 14 14 14 14 15 15 15 15 15 14 14 14 14 14 15 15 15 15 14 14 14 14 15 15 14 13 14 14 15 16 16 16 17 17 17 17 17 17 17
13 13 13 13 14 14 15 15 15 15 15 14 14 14 14 14 14 14 14 14 15 15 15 14 14 15 14 14 14 14 15 16 16 16 17 17 17 17 18 18 17 17 18
13 13 13 13 14 14 14 15 15 15 15 14 15 14 14 14 14 14 14 14 14 14 14 15 15 15 15 15 15 15 16 16 17 17 17 17 18 18 18 18 18 18 18
13 13 14 14 14 14 14 14 14 14 14 14 14 14 13 13 14 14 14 14 14 14 14 15 16 16 15 16 16 16 16 17 17 17 18 18 18 18 18 18 18 19 19
13 14 14 14 14 14 14 14 13 13 13 13 13 13 13 13 14 14 14 14 14 15 15 16 16 17 17 17 17 17 17 18 18 18 18 18 19 19 18 19 19 19 19
14 14 14 14 15 14 14 14 13 13 13 13 14 14 14 14 14 14 14 15 15 15 15 15 16 17 17 17 17 17 17 18 18 18 18 18 19 19 19 19 19 20 20
15 14 15 15 15 15 15 14 13 13 13 14 14 14 14 15 15 15 15 15 16 16 16 16 16 17 17 17 17 17 17 17 18 18 18 18 19 19 19 20 19 20 20
14 15 15 15 15 15 15 14 14 13 14 14 14 14 14 15 15 15 15 15 16 16 16 16 17 17 18 17 17 17 17 18 18 18 18 19 19 19 19 20 20 20 21
15 15 16 16 16 15 15 15 15 15 15 15 15 15 15 15 15 15 15 15 15 15 16 16 17 18 18 17 17 17 18 18 18 18 18 18 18 19 20 20 20 21 21
16 16 17 17 16 16 16 16 16 16 16 16 16 16 16 16 16 16 16 16 16 16 16 17 17 17 17 18 18 18 18 18 18 18 19 19 19 20 20 21 21 21 21
16 17 17 17 17 17 17 17 17 17 18 17 17 17 17 17 17 17 17 17 17 17 17 17 17 17 18 18 18 18 18 18 18 19 19 19 20 20 21 21 21 22 22
18 18 18 18 18 18 18 18 18 18 18 18 18 17 17 18 18 18 18 18 18 18 18 17 17 17 17 17 17 17 17 18 18 18 19 19 19 20 21 21 21 21 21
18 18 18 19 19 19 19 20 19 19 18 18 18 18 18 18 19 18 18 18 18 18 18 17 17 16 16 17 17 18 18 18 18 18 18 19 19 20 20 21 21 21 22
19 19 19 20 20 20 20 20 20 19 18 18 18 18 18 18 18 18 19 18 17 17 17 17 17 17 17 16 17 18 18 18 18 18 18 19 20 20 21 21 21 22 22
20 20 20 21 20 19 19 19 18 18 18 18 18 18 18 18 18 18 18 18 17 17 17 17 17 17 17 17 17 17 18 18 18 18 18 19 20 20 21 22 21 22 22
21 21 20 20 19 19 18 17 18 18 18 18 18 18 18 18 18 18 17 16 16 17 17 17 17 17 18 18 18 18 18 19 18 19 19 19 19 20 20 21 21 21 22
21 21 20 19 19 19 18 17 17 17 17 18 18 18 18 18 18 18 17 17 16 17 17 17 17 17 17 18 18 18 18 19 18 19 19 19 19 20 20 20 20 21 21
21 21 21 20 19 19 19 18 17 17 17 18 17 18 18 18 18 18 18 18 17 17 17 17 17 17 18 18 17 17 18 18 19 19 19 19 20 21 21 20 20 20 20
22 21 20 20 20 19 19 19 18 19 19 18 18 18 18 18 17 18 18 18 18 17 17 17 17 17 18 18 17 18 18 18 18 19 19 20 20 21 21 21 20 20 19
24 22 21 21 20 20 20 20 20 19 19 19 18 18 18 18 18 18 18 19 19 18 18 18 18 18 18 18 18 18 18 19 19 19 20 20 20 21 21 21 20 20 20
23 23 22 22 21 21 21 22 21 21 20 19 19 19 19 19 19 19 19 18 18 18 18 19 19 19 19 19 19 19 19 19 20 20 20 20 20 20 21 21 21 20 20
23 23 23 23 23 23 23 23 23 23 21 20 20 20 20 21 20 20 20 19 19 19 19 19 19 19 19 19 19 19 19 20 20 20 20 20 20 20 20 21 21 21 21
Wind_Direction
287 287 289 289 287 282 280 278 279 278 278 279 276 273 272 275 272 269 268 268 268 268 267 267 265 266 266 265 264 265 263 263 264 264 263 265 265 264 266 267 262 260 257
290 291 292 291 290 288 283 280 281 282 282 279 277 274 275 275 274 270 267 265 265 266 267 266 267 266 267 265 263 264 264 266 265 266 266 265 263 264 267 265 265 263 260
289 290 290 291 291 290 288 283 282 283 282 280 278 275 275 276 275 274 269 265 264 265 265 265 266 266 266 267 265 264 266 265 267 267 266 268 267 266 268 266 265 263 263
288 290 290 291 292 291 287 283 283 282 282 281 280 276 275 275 274 273 270 268 265 263 263 265 266 266 267 267 266 265 267 268 268 269 271 270 269 270 270 267 266 265 263
289 290 292 292 290 288 285 282 281 281 281 282 281 279 275 273 272 273 271 268 265 263 262 263 263 265 266 267 264 265 268 270 271 271 271 271 270 271 270 268 267 266 265
289 292 293 293 293 292 289 286 284 283 282 282 282 279 276 274 272 273 271 267 264 262 261 262 263 265 266 266 265 268 270 272 273 272 271 271 271 273 274 271 268 267 266
290 291 292 293 294 294 291 288 285 283 281 284 284 280 277 273 273 272 269 267 267 266 264 262 262 264 266 267 268 270 273 274 274 272 271 271 273 273 273 273 273 271 269
293 293 293 294 295 294 292 289 286 283 281 282 285 281 276 273 273 272 269 268 267 266 265 263 262 264 266 268 268 271 274 276 275 274 272 272 273 273 272 272 274 274 274
294 294 293 294 295 295 293 291 287 286 285 282 284 282 277 274 275 272 271 269 266 267 266 266 264 264 266 269 270 272 274 275 276 276 276 275 273 274 274 272 272 273 273
294 294 293 293 294 295 293 290 287 286 284 283 283 282 278 271 270 272 272 271 271 270 268 267 267 267 268 270 272 274 275 276 277 278 278 277 276 273 273 273 274 273 273
293 294 293 292 292 292 292 289 287 285 283 282 283 283 280 274 270 270 271 271 271 271 270 270 271 273 272 274 273 274 277 278 278 279 278 277 278 275 273 274 273 274 274
293 295 295 295 292 290 288 285 284 284 284 283 283 282 281 277 275 274 272 273 272 272 273 273 273 274 274 276 276 274 276 277 278 281 281 278 278 277 277 276 274 273 273
294 294 294 294 293 290 287 284 282 281 283 282 282 281 281 279 276 275 274 274 274 274 274 274 274 272 271 272 275 276 275 277 277 280 281 281 280 280 279 278 276 275 275
293 295 294 293 292 289 288 287 283 281 281 281 280 279 279 279 277 277 275 275 276 277 276 276 274 272 272 273 272 274 274 276 278 280 282 281 281 282 280 278 277 277 276
290 293 294 292 290 288 288 287 286 284 281 280 278 278 278 278 276 277 276 276 277 277 275 276 276 276 275 274 272 275 276 277 278 280 281 282 283 282 280 279 278 278 276
288 289 290 291 290 288 287 287 286 282 280 279 277 277 277 277 276 277 278 277 278 277 275 275 276 277 276 274 275 277 279 280 281 282 282 282 284 283 281 279 277 278 277
288 289 288 289 290 289 289 287 284 284 281 277 276 276 275 275 276 276 278 277 277 277 276 274 275 276 278 277 278 278 279 282 282 281 282 284 285 285 282 279 277 279 278
289 288 288 289 290 290 290 288 285 282 280 278 275 276 276 275 275 275 276 276 275 276 276 276 274 276 277 278 280 280 280 282 282 280 281 285 286 286 283 280 278 280 279
288 287 287 287 288 289 289 288 285 283 279 277 275 277 276 274 274 275 275 273 274 276 275 276 276 275 275 275 279 279 278 282 283 282 282 286 288 289 285 281 279 280 281
284 285 286 286 286 288 289 289 287 284 282 278 278 276 275 273 274 275 273 272 274 274 275 276 276 276 276 276 278 278 279 281 284 285 286 287 289 290 289 285 282 281 281
284 283 284 284 284 286 287 287 287 285 285 282 279 276 276 275 273 273 271 272 274 273 274 274 275 276 278 279 279 279 280 282 286 286 286 288 289 289 291 289 287 286 284
284 282 282 282 282 282 283 284 284 285 285 285 282 281 277 275 272 272 272 273 274 275 274 273 273 276 280 281 282 283 282 283 285 285 287 288 291 292 291 290 291 289 285
284 285 282 282 281 281 281 281 281 282 283 282 281 280 277 275 275 274 273 275 276 275 274 272 272 277 280 280 281 283 283 284 285 286 288 290 290 291 290 290 291 290 287
280 281 282 281 280 281 281 280 281 281 281 281 280 278 277 276 275 274 272 274 275 276 277 275 275 277 279 279 281 282 282 285 287 288 290 291 291 290 288 289 289 287 286
280 279 279 281 281 278 279 280 280 280 280 281 279 277 275 274 274 274 272 272 273 275 276 276 276 275 277 280 282 282 283 284 287 288 290 290 291 290 288 289 288 287 287
280 280 280 281 282 281 279 280 281 279 277 276 277 277 275 273 271 273 273 273 273 273 275 276 277 276 277 279 282 282 284 286 289 290 291 291 291 291 289 289 288 287 287
Height
5841 5841 5841 5840 5840 5840 5840 5840 5839 5839 5839 5839 5839 5839 5840 5840 5840 5841 5841 5841 5842 5842 5842 5843 5843 5844 5844 5845 5845 5846 5847 5847 5848 5848 5849 5850 5850 5851 5852 5852 5852 5853 5854
5838 5838 5838 5837 5837 5836 5836 5836 5836 5836 5836 5836 5836 5836 5836 5836 5837 5837 5838 5838 5838 5839 5839 5840 5840 5841 5841 5842 5842 5843 5843 5844 5845 5845 5846 5846 5847 5848 5848 5849 5849 5849 5850
5836 5835 5835 5834 5834 5833 5833 5833 5832 5832 5832 5832 5832 5832 5833 5833 5833 5834 5834 5834 5835 5835 5836 5837 5837 5838 5838 5839 5839 5839 5840 5841 5841 5842 5842 5843 5843 5844 5845 5845 5846 5846 5846
5833 5832 5832 5831 5831 5830 5830 5829 5829 5829 5829 5829 5829 5829 5829 5829 5830 5830 5830 5831 5831 5832 5833 5833 5834 5835 5835 5836 5836 5836 5837 5837 5838 5838 5839 5839 5840 5840 5841 5841 5841 5842 5842
5830 5829 5829 5828 5828 5827 5827 5826 5826 5826 5825 5825 5825 5825 5825 5826 5826 5826 5827 5827 5828 5829 5829 5830 5831 5831 5832 5832 5833 5833 5833 5834 5834 5835 5835 5835 5836 5836 5837 5837 5837 5837 5837
5827 5827 5826 5826 5825 5824 5824 5823 5823 5822 5822 5822 5822 5822 5822 5822 5823 5823 5823 5824 5824 5825 5825 5826 5827 5828 5828 5829 5829 5830 5830 5831 5831 5831 5831 5831 5832 5832 5832 5833 5832 5832 5833
5825 5824 5823 5823 5822 5821 5820 5820 5819 5819 5819 5819 5818 5818 5818 5819 5819 5820 5820 5820 5821 5821 5822 5823 5823 5824 5824 5825 5825 5826 5826 5826 5827 5826 5827 5827 5827 5827 5827 5828 5828 5828 5828
5822 5821 5820 5820 5819 5818 5817 5816 5816 5816 5815 5815 5815 5815 5815 5816 5816 5816 5816 5817 5817 5817 5818 5819 5820 5820 5821 5821 5821 5822 5822 5822 5822 5822 5822 5822 5822 5823 5823 5823 5823 5823 5823
5819 5818 5817 5816 5815 5815 5814 5813 5813 5812 5812 5812 5811 5812 5811 5812 5812 5813 5813 5813 5813 5813 5814 5815 5816 5816 5817 5817 5817 5817 5818 5817 5817 5817 5817 5817 5817 5818 5817 5818 5818 5818 5818
5816 5815 5814 5813 5812 5811 5811 5810 5809 5809 5809 5808 5808 5808 5808 5808 5808 5809 5809 5809 5809 5809 5810 5811 5811 5812 5812 5812 5812 5813 5813 5813 5813 5813 5813 5812 5812 5812 5813 5813 5813 5813 5812
5812 5811 5811 5810 5809 5808 5807 5807 5806 5806 5805 5805 5805 5804 5804 5804 5804 5805 5805 5805 5805 5805 5806 5806 5807 5807 5807 5807 5808 5808 5808 5808 5808 5808 5808 5807 5807 5807 5807 5807 5807 5807 5807
5809 5808 5807 5806 5805 5804 5804 5803 5803 5802 5802 5801 5801 5801 5800 5800 5800 5800 5800 5801 5801 5801 5801 5801 5802 5802 5803 5803 5803 5803 5803 5803 5803 5803 5803 5802 5802 5802 5802 5802 5802 5801 5801
5805 5804 5803 5802 5801 5801 5800 5799 5799 5799 5798 5798 5797 5797 5796 5796 5796 5796 5796 5796 5796 5797 5797 5797 5797 5797 5798 5798 5799 5798 5798 5798 5798 5798 5797 5797 5796 5796 5796 5796 5796 5796 5795
5801 5800 5799 5798 5798 5797 5796 5795 5795 5794 5794 5793 5793 5792 5792 5792 5791 5791 5791 5791 5792 5792 5792 5792 5792 5792 5793 5793 5794 5793 5793 5793 5793 5793 5792 5792 5792 5791 5791 5790 5790 5789 5789
5797 5796 5795 5794 5793 5792 5792 5791 5790 5790 5789 5789 5788 5788 5787 5787 5787 5786 5786 5786 5787 5787 5787 5786 5787 5787 5788 5788 5788 5788 5788 5788 5788 5788 5787 5787 5786 5786 5785 5785 5784 5783 5782
5793 5792 5791 5790 5789 5788 5787 5786 5785 5785 5784 5784 5783 5783 5782 5782 5782 5782 5781 5781 5781 5781 5781 5781 5781 5782 5783 5783 5783 5783 5783 5783 5783 5782 5782 5781 5780 5780 5779 5778 5777 5776 5776
5788 5787 5786 5785 5784 5783 5782 5781 5780 5779 5779 5779 5778 5777 5777 5777 5777 5776 5776 5775 5775 5775 5775 5776 5776 5777 5778 5778 5778 5778 5778 5778 5777 5777 5776 5775 5775 5774 5772 5772 5771 5770 5769
5783 5782 5781 5780 5778 5777 5776 5775 5774 5774 5773 5773 5772 5772 5772 5772 5772 5771 5771 5770 5770 5771 5771 5771 5772 5772 5773 5773 5773 5773 5773 5773 5772 5771 5770 5770 5769 5768 5766 5765 5764 5763 5762
5777 5776 5775 5774 5773 5772 5771 5770 5769 5768 5768 5767 5767 5767 5766 5766 5766 5766 5766 5766 5766 5766 5766 5766 5767 5767 5768 5768 5768 5768 5768 5767 5767 5766 5765 5764 5763 5761 5760 5759 5758 5756 5755
5772 5771 5770 5769 5768 5767 5766 5765 5764 5763 5763 5762 5762 5762 5761 5761 5761 5761 5761 5761 5761 5762 5762 5762 5762 5762 5763 5763 5763 5763 5763 5762 5762 5761 5760 5759 5757 5756 5754 5753 5752 5750 5749
5766 5765 5764 5763 5762 5761 5761 5760 5759 5758 5758 5757 5757 5757 5756 5756 5756 5756 5756 5756 5756 5757 5757 5757 5758 5758 5758 5758 5758 5758 5757 5757 5756 5755 5755 5754 5752 5750 5748 5747 5745 5744 5743
5760 5759 5758 5757 5757 5756 5755 5755 5754 5753 5753 5752 5752 5752 5752 5751 5751 5751 5751 5751 5751 5752 5752 5752 5753 5753 5753 5753 5753 5752 5752 5752 5751 5751 5749 5748 5746 5744 5743 5741 5739 5738 5737
5754 5753 5753 5752 5751 5750 5750 5749 5749 5748 5748 5747 5747 5747 5747 5746 5746 5746 5746 5746 5746 5746 5747 5747 5748 5748 5748 5748 5748 5747 5746 5746 5745 5744 5743 5742 5740 5738 5737 5735 5733 5732 5731
5748 5748 5747 5747 5746 5745 5744 5744 5743 5743 5743 5742 5742 5742 5742 5741 5741 5741 5741 5742 5742 5741 5742 5742 5742 5742 5742 5742 5742 5741 5741 5740 5739 5738 5737 5736 5734 5732 5730 5729 5727 5726 5725
5742 5741 5741 5740 5740 5739 5739 5738 5737 5737 5737 5737 5736 5736 5736 5736 5736 5736 5736 5736 5737 5737 5737 5737 5737 5737 5736 5736 5736 5735 5735 5735 5734 5732 5731 5730 5728 5726 5724 5723 5721 5720 5718
5736 5735 5735 5734 5734 5733 5733 5732 5731 5731 5731 5731 5730 5730 5730 5730 5730 5730 5730 5731 5731 5731 5731 5731 5731 5731 5731 5730 5730 5729 5729 5728 5727 5726 5725 5723 5722 5720 5719 5716 5715 5713 5712